Dewpoint
5 5 5 5 2 -0 -4 0 2 3 2 3 4 2 1 -0 -3 -5 -5 -1 -4 -7 -9 -9 -10 -12 -12 -10 -5 -7 -5 -7 -8 -3 -6 -4 -4 -5 -6 -7 -9 -9 -8 -7 -7
-2 -3 -2 -1 2 -0 0 3 4 4 3 2 2 1 -2 -2 -6 -7 -5 -7 -7 -6 -9 -9 -9 -11 -10 -7 -8 -9 -6 -9 -7 -5 -5 -3 -3 -5 -6 -7 -7 -7 -7 -8 -8
-5 -4 1 1 1 1 5 6 4 1 -2 -2 -3 -4 -7 -9 -11 -9 -8 -9 -10 -7 -8 -8 -7 -7 -5 -4 -4 -6 -8 -5 -4 -4 -2 -2 -3 -5 -4 -5 -6 -5 -7 -8 -7
-5 -5 -3 -1 2 5 6 4 1 -2 -2 -0 -2 -6 -7 -4 -9 -9 -11 -11 -11 -11 -9 -7 -7 -7 -4 -3 -2 -8 -5 -3 -3 -2 -3 -3 -4 -4 -3 -5 -5 -5 -7 -8 -6
-4 -5 -5 -3 1 3 2 2 -1 -3 -2 -0 -1 -4 -4 -10 -8 -10 -13 -15 -14 -13 -10 -9 -9 -6 -4 -3 -6 -6 -4 -4 -4 -4 -4 -3 -3 -3 -3 -5 -5 -7 -8 -7 -4
-4 -5 -5 -5 -5 -5 -4 -2 -4 -4 -2 -4 -2 -6 -11 -9 -9 -11 -10 -13 -15 -16 -12 -11 -8 -6 -6 -6 -9 -4 -3 -3 -3 -3 -3 -2 -3 -3 -6 -7 -7 -7 -8 -6 -4
-5 -4 -5 -6 -6 -6 -6 -6 -5 -1 -4 -11 -11 -10 -11 -6 -6 -11 -10 -13 -14 -15 -15 -11 -9 -7 -8 -3 -2 -2 -4 -5 -5 -5 -4 -5 -6 -3 -6 -7 -7 -7 -8 -4 -5
-8 -6 -4 -3 -3 -4 -3 -3 -3 -6 -8 -9 -15 -15 -7 -5 -6 -7 -11 -11 -12 -12 -13 -11 -8 -6 -3 -3 -8 -7 -7 -8 -7 -5 -5 -7 -4 -9 -7 -7 -8 -8 -7 -4 -8
-11 -9 -8 -6 -7 -8 -6 -4 -10 -11 -10 -10 -14 -15 -8 -6 -7 -7 -6 -8 -7 -8 -8 -7 -5 -6 -9 -10 -10 -11 -12 -10 -9 -5 -5 -7 -5 -9 -7 -7 -7 -7 -4 -5 -9
-14 -13 -11 -10 -11 -10 -11 -11 -12 -11 -11 -10 -11 -16 -10 -6 -6 -7 -6 -5 -5 -5 -8 -7 -5 -7 -8 -9 -5 -12 -11 -10 -8 -7 -5 -4 -4 -6 -6 -6 -7 -5 -3 -3 -8
-13 -13 -14 -13 -12 -11 -13 -9 -11 -11 -9 -6 -6 -7 -5 -6 -6 -8 -7 -7 -7 -8 -5 -4 -5 -7 -7 -6 -9 -7 -6 -6 -6 -6 -4 -4 -4 -4 -5 -6 -5 -3 -2 -2 -2
-8 -13 -11 -13 -14 -14 -13 -7 -11 -8 -6 -5 -6 -6 -5 -7 -7 -7 -8 -8 -7 -7 -8 -5 -4 -6 -6 -6 -5 -5 -5 -5 -6 -7 -4 -3 -3 -5 -4 -3 -3 -3 -2 -3 -3
-5 -7 -11 -12 -14 -14 -11 -10 -10 -10 -9 -7 -6 -6 -4 -5 -5 -5 -6 -5 -7 -6 -5 -5 -4 -6 -7 -6 -6 -6 -6 -5 -3 -5 -4 -3 -4 -7 -6 -3 -4 -3 -3 -2 -2
-5 -7 -10 -10 -13 -15 -9 -8 -7 -5 -2 -6 -7 -5 -4 -5 -5 -5 -7 -5 -6 -6 -4 -5 -7 -7 -7 -6 -7 -6 -8 -5 -4 -2 -3 -3 -3 -3 -9 -6 -5 -4 -2 -7 -9
-6 -8 -9 -8 -11 -12 -10 -10 -12 -4 -5 -7 -6 -4 -5 -5 -5 -7 -7 -8 -7 -5 -9 -6 -5 -6 -8 -7 -6 -5 -5 -4 -2 -1 -1 -2 0 -1 -9 -7 -7 -4 -7 -8 -9
-8 -6 -11 -10 -9 -11 -11 -13 -5 -2 -7 -4 -5 -4 -7 -7 -6 -8 -7 -9 -7 -7 -6 -6 -5 -8 -9 -7 -6 -5 -2 -2 -1 -1 2 -1 -1 -1 -6 -10 -7 -5 -7 -8 -11
-8 -7 -8 -12 -13 -14 -13 -8 0 -3 -6 -4 -3 -3 -5 -7 -6 -7 -8 -9 -8 -5 -5 -4 -4 -7 -5 -7 -5 -4 -4 1 1 3 2 -1 -3 -1 -6 -8 -5 -8 -6 -8 -9
-10 -6 -6 -7 -8 -6 -1 -6 -10 -7 -3 -4 -2 -4 -6 -7 -7 -6 -7 -5 -10 -5 -3 -1 -3 -6 -9 -7 -4 -2 -2 1 -1 1 -0 -2 1 -1 -7 -7 -7 -4 -5 -6 -6
-10 -5 -6 -5 -2 -3 1 -4 -9 -5 -3 -3 -4 -4 -3 -5 -6 -4 -7 -6 -10 -7 -4 -2 -2 -8 -7 -7 -4 -3 0 -3 -1 -1 2 0 -1 -3 -6 -9 -5 -4 -4 -4 -5
-10 -4 -2 -3 0 2 -4 -3 -2 -3 -3 -2 -4 -4 -4 -3 -5 -4 -3 -8 -9 -9 -8 -5 -2 -4 -6 -4 -4 -4 -3 -0 1 1 3 1 0 0 -5 -7 -7 -4 -4 -4 -4
-8 -4 1 -3 1 -3 -3 -3 -2 -2 -3 -2 -2 -2 -3 -3 -4 -4 -3 -7 -10 -8 -8 -6 -3 -3 -3 -3 -2 -2 -2 -2 -1 1 3 3 1 -3 -3 -6 -6 -4 -4 -4 -4
-10 -11 -0 -2 -1 -0 -1 -1 -1 -2 -2 -2 -2 -2 -2 -4 -2 -3 -2 -4 -9 -8 -6 -6 -3 -0 -2 -4 -5 -4 -2 -2 2 1 0 -0 1 -5 -6 -7 -7 -5 -4 -4 -4
-7 -5 0 -3 -5 -1 1 0 -1 -1 -2 -2 -1 -2 -4 -4 -3 -3 -2 -7 -8 -7 -5 -4 -1 0 -1 -4 -5 -2 -3 -3 -2 -1 1 2 1 -6 -6 -8 -6 -5 -5 -4 -4
-5 -5 -3 -1 -0 -1 -1 -2 -1 -1 -2 -2 -2 -3 -3 -2 -3 -2 -2 -4 -8 -7 -3 -3 -1 -0 0 -3 -2 -1 -2 -3 -1 0 1 0 -2 -4 -5 -4 -5 -4 -4 -3 -3
-4 -2 -0 -5 -3 -0 -2 -1 0 1 -1 -1 -1 -2 -2 -0 -1 -1 -2 -1 -3 -5 -2 -2 -0 -0 -1 -1 -1 -1 -0 -1 -1 -1 1 -1 -1 -3 -3 -3 -3 -3 -3 -3 -4
-5 -2 -1 -0 -0 -0 -1 -2 -0 -1 -1 0 -0 -1 -2 -1 -1 -0 -1 -0 -0 -2 -3 -4 -1 -4 -3 -1 -1 0 -1 -0 0 0 0 -0 0 -3 -3 -3 -3 -3 -2 -2 -3
-6 -3 -4 -4 -0 -1 -1 -2 -0 -0 -0 -1 -1 -1 -1 -1 -2 -1 -1 -1 -1 -1 -2 -3 -2 -3 0 -1 -2 -1 -2 -2 -2 -2 -1 0 -2 -2 -3 -4 -3 -4 -2 -2 -2
Wind_Speed
14 15 13 13 11 15 16 16 17 16 15 15 13 12 12 10 11 9 8 4 6 7 8 6 7 6 5 5 5 4 4 2 4 5 2 0 4 1 3 7 4 3 3 7 10
12 13 13 14 15 17 17 17 17 15 15 14 13 12 11 12 9 9 6 7 6 7 7 7 6 5 4 4 3 4 3 6 2 3 2 1 1 5 3 5 2 3 2 7 8
14 13 14 14 16 18 18 16 15 14 14 11 12 11 12 9 6 7 6 6 5 6 7 6 5 4 4 3 3 2 3 3 1 2 1 0 3 1 1 2 2 3 8 11 8
14 13 13 13 15 15 14 14 13 13 8 7 7 8 6 3 3 4 4 4 4 6 6 6 4 3 4 3 3 4 2 2 2 1 1 2 4 3 7 4 3 7 10 11 7
12 12 11 12 11 10 9 10 10 6 6 5 5 6 6 8 7 5 5 3 2 5 5 5 4 4 5 5 3 3 1 0 1 7 8 7 7 5 14 13 9 1 10 7 5
9 8 9 9 9 8 8 8 5 4 6 5 6 7 5 6 6 6 4 5 4 4 5 4 4 7 9 4 3 2 1 5 2 3 2 2 2 2 2 7 10 6 9 2 6
7 7 6 6 6 6 6 5 4 7 7 7 11 11 11 8 8 7 5 5 7 7 8 9 8 2 6 4 3 2 3 2 2 3 1 5 1 5 5 8 8 10 7 2 6
4 6 6 5 4 4 4 5 6 5 5 5 5 4 8 10 11 8 5 7 8 7 8 9 9 8 4 6 5 4 4 2 0 6 2 4 5 3 6 3 12 14 2 3 6
2 3 4 5 4 4 5 6 6 5 6 5 4 5 6 7 7 8 6 6 8 8 9 8 4 5 4 4 3 6 1 2 5 3 4 1 5 3 5 13 14 3 2 6 7
2 2 2 3 4 6 6 6 8 4 4 5 5 6 5 3 6 9 6 6 5 5 5 3 5 4 4 3 3 1 2 2 4 3 5 6 12 10 18 8 4 6 5 8 9
3 2 1 3 4 6 7 6 1 5 19 10 7 7 6 5 11 8 4 5 6 7 4 6 5 3 2 2 3 5 3 2 4 2 5 4 7 8 10 7 10 7 7 8 10
8 2 2 4 6 7 3 1 4 9 11 11 11 9 8 5 3 12 6 3 4 3 3 5 3 2 4 3 4 3 2 3 5 1 2 4 8 3 3 3 5 6 7 8 8
12 6 2 3 5 6 2 8 9 5 5 5 7 6 4 6 6 11 7 4 5 5 4 5 3 3 2 2 3 1 2 2 4 5 1 6 2 1 1 3 4 7 7 8 8
15 9 3 3 3 5 7 7 3 1 5 8 6 6 5 2 5 10 8 4 6 3 2 4 0 2 3 2 3 2 2 1 5 3 3 5 4 3 1 1 2 4 6 8 8
16 11 6 2 4 5 5 5 3 1 4 3 4 4 5 6 2 8 9 4 3 2 3 0 2 3 2 0 3 3 2 2 1 2 2 4 2 4 2 4 3 4 7 9 9
13 13 8 7 4 3 6 3 4 6 3 3 3 6 3 6 4 4 3 6 4 4 4 2 1 2 2 2 2 2 2 2 2 1 2 3 2 4 3 3 3 3 7 8 9
7 10 9 5 6 7 5 1 5 5 1 1 1 3 2 4 3 5 4 5 2 3 3 5 2 2 0 2 2 2 4 3 5 4 2 2 1 6 2 1 3 5 7 7 6
3 5 7 4 4 3 1 5 5 2 4 1 1 1 2 2 2 4 2 2 1 4 3 3 4 1 2 1 2 3 2 4 4 2 4 3 5 3 2 4 10 10 7 4 4
1 2 3 2 2 2 2 4 5 6 4 4 1 2 1 0 1 1 1 5 4 3 4 3 2 1 2 1 1 1 3 2 5 1 1 3 6 4 3 3 6 11 12 8 3
4 3 1 4 2 2 3 4 4 3 3 3 4 0 4 2 1 0 4 2 3 3 3 5 1 1 2 3 6 1 5 3 3 0 4 4 5 4 5 8 6 4 8 10 7
4 1 1 5 1 2 3 4 3 2 3 3 4 4 2 1 1 2 1 0 2 2 2 3 3 2 2 3 5 2 1 4 3 3 4 3 5 4 4 8 10 7 3 10 9
3 2 2 5 1 2 3 5 6 5 2 0 3 2 3 4 2 2 2 2 2 3 2 1 3 2 2 1 2 1 3 4 3 3 2 0 7 1 4 6 18 6 4 14 11
5 1 1 2 1 1 1 2 3 5 6 6 5 2 2 4 2 3 1 2 3 2 4 4 1 3 5 2 1 3 4 4 4 2 7 3 5 2 2 5 13 10 15 21 15
4 2 1 2 5 4 2 1 3 2 1 4 5 4 3 2 0 3 3 1 4 4 4 6 3 6 6 4 3 3 4 5 5 3 8 13 24 11 9 5 12 21 28 27 18
2 2 2 1 2 3 2 1 1 2 1 4 1 4 5 4 1 2 1 2 1 2 2 3 5 6 7 6 4 10 11 8 10 14 11 28 16 17 10 12 16 12 10 3 6
1 2 0 2 1 3 3 3 5 1 3 3 2 1 4 4 5 5 4 2 5 1 4 1 3 2 4 9 13 15 12 16 19 19 20 23 26 12 6 13 15 12 8 8 9
1 1 2 1 1 3 3 3 5 3 3 2 3 3 2 4 4 6 7 6 6 7 6 5 4 2 4 1 4 8 12 15 4 4 6 8 2 6 7 12 13 19 16 16 20
Wind_Direction
82 88 105 128 129 134 137 129 122 118 119 119 120 127 129 128 124 120 103 62 101 116 121 117 110 125 123 91 84 106 69 170 206 162 169 75 27 36 286 285 296 249 290 311 320
74 90 109 120 121 119 122 124 119 118 120 117 122 125 123 125 121 102 80 97 114 122 123 121 125 147 97 88 63 83 113 205 170 165 173 334 291 323 306 321 309 303 293 322 323
69 89 104 114 119 124 126 125 123 121 119 117 121 126 130 133 110 43 67 100 115 130 134 132 146 136 90 88 41 91 140 155 106 224 251 249 295 241 287 287 206 294 328 336 337
74 80 94 107 117 123 123 124 124 119 103 109 124 127 137 132 120 37 59 101 116 149 144 143 151 114 87 93 74 98 87 140 137 123 316 279 295 271 223 230 299 314 311 328 333
83 93 99 105 113 122 123 124 124 110 90 104 122 140 133 86 69 47 54 67 107 157 161 161 141 130 117 116 98 87 123 157 269 289 282 266 267 254 260 271 234 248 325 311 334
68 88 103 115 129 134 128 138 141 106 90 78 115 137 144 78 60 47 58 44 87 127 131 133 121 118 108 85 88 103 334 306 344 318 283 267 253 315 206 152 176 310 346 341 345
73 74 85 106 118 125 141 162 139 113 93 96 97 118 107 81 57 52 73 72 79 88 98 101 111 128 110 104 89 60 39 33 52 345 299 304 179 227 199 205 245 315 331 347 352
87 100 99 106 114 127 137 128 122 106 99 106 99 126 81 77 62 56 77 80 81 86 93 101 105 92 66 115 44 52 54 47 57 354 6 32 279 252 195 218 296 307 294 7 13
90 109 129 132 131 127 124 122 110 93 89 100 86 121 100 81 52 46 68 92 87 84 89 101 90 79 80 76 35 13 128 349 327 41 334 73 274 291 236 294 293 293 101 39 41
60 128 142 134 129 128 123 113 91 80 103 85 74 102 88 65 45 30 68 77 90 93 74 66 57 70 40 56 198 175 60 301 255 350 12 281 261 283 313 271 229 138 89 57 46
40 50 164 170 147 136 129 131 149 85 74 72 72 90 88 70 50 35 86 78 68 59 49 26 66 81 126 38 98 104 85 306 266 280 334 244 290 309 3 116 127 107 86 67 52
29 52 61 154 154 149 123 198 134 128 88 63 67 72 64 69 76 37 51 69 61 68 11 30 81 180 129 103 100 86 85 271 280 229 259 316 302 299 23 88 109 100 81 64 57
21 23 72 135 157 157 122 127 118 110 90 56 54 54 38 43 52 19 29 56 71 59 22 125 161 144 103 62 57 133 179 245 250 319 286 303 334 355 56 107 90 83 80 60 39
18 21 112 109 152 152 133 120 107 80 76 327 3 27 14 44 56 26 30 48 41 120 97 88 351 84 62 56 103 315 183 279 281 337 299 360 280 277 293 281 106 84 63 46 34
21 27 50 96 138 165 167 142 71 91 49 305 346 2 21 60 14 14 28 43 77 90 75 268 36 52 94 70 119 254 12 232 187 95 24 19 53 270 2 222 186 60 55 49 39
15 28 36 72 113 146 153 133 12 45 265 17 349 358 37 29 32 4 46 57 78 78 44 70 48 76 354 344 195 285 165 70 63 82 47 347 87 279 198 222 145 70 58 51 56
9 23 32 52 100 115 138 69 40 116 285 242 9 29 64 5 34 33 26 20 73 72 4 13 3 334 335 260 226 11 44 340 356 8 229 341 8 258 307 47 134 102 73 64 65
340 11 18 56 117 89 90 56 86 189 203 54 48 84 98 10 52 21 69 32 74 83 104 137 320 231 323 121 179 37 104 142 244 277 289 318 237 253 224 103 99 89 82 78 58
345 251 356 350 287 253 184 68 196 193 150 148 34 84 321 110 140 103 125 188 200 172 160 160 230 123 47 59 58 153 57 160 106 68 355 257 283 287 160 109 101 77 67 51 26
313 208 286 348 246 204 67 197 157 170 119 115 192 167 199 275 286 317 199 206 191 223 212 200 14 203 151 125 41 109 151 71 21 349 274 275 272 246 195 193 190 129 77 42 13
325 251 347 352 158 150 150 204 200 165 149 143 190 158 196 243 250 290 321 153 210 186 99 135 99 239 157 197 170 86 90 52 112 166 205 283 256 215 228 203 185 176 65 11 3
314 18 335 349 61 45 145 176 152 155 144 129 126 146 178 169 228 237 229 231 181 164 76 356 123 279 234 44 37 87 170 149 136 243 240 247 271 347 274 232 185 193 301 344 347
331 272 296 357 100 356 285 278 219 150 171 160 157 179 169 181 200 203 225 339 156 132 167 185 7 359 340 44 47 208 196 141 108 78 202 204 256 198 51 109 194 276 304 320 316
323 43 73 82 91 129 140 221 293 301 339 156 137 134 138 180 212 192 191 135 175 159 149 155 151 188 210 230 143 218 202 204 169 174 266 234 270 260 284 294 279 307 311 308 291
356 306 157 241 68 93 77 36 176 257 289 213 51 190 164 170 158 217 216 330 108 139 93 123 200 208 241 243 222 251 252 221 212 237 237 274 256 285 294 306 309 328 330 300 175
314 170 139 165 252 135 126 208 189 248 148 287 269 101 175 176 194 207 162 200 221 55 152 36 248 92 274 245 247 261 255 241 243 254 257 267 282 294 11 1 353 336 321 278 256
359 247 161 153 117 112 225 186 170 139 57 26 242 144 194 234 242 251 235 238 233 181 193 171 153 90 261 199 342 297 247 235 211 195 214 244 296 35 13 5 349 341 327 319 302
Height
1501 1501 1501 1501 1500 1502 1503 1504 1506 1507 1508 1510 1511 1513 1515 1518 1518 1520 1521 1523 1522 1523 1524 1526 1526 1528 1529 1529 1531 1532 1543 1550 1544 1550 1545 1546 1545 1545 1545 1544 1544 1544 1544 1545 1543
1505 1504 1504 1504 1504 1504 1506 1508 1508 1509 1511 1512 1514 1515 1517 1519 1520 1521 1524 1522 1523 1524 1525 1526 1527 1528 1529 1531 1532 1533 1543 1542 1541 1543 1545 1545 1545 1545 1545 1544 1543 1542 1543 1543 1541
1508 1508 1507 1507 1507 1508 1509 1511 1512 1513 1514 1515 1516 1518 1519 1520 1522 1524 1523 1523 1524 1524 1525 1525 1527 1528 1529 1532 1534 1536 1540 1541 1542 1543 1543 1543 1543 1543 1543 1543 1542 1542 1541 1540 1538
1511 1510 1511 1511 1511 1511 1512 1513 1515 1516 1516 1517 1518 1519 1521 1522 1527 1524 1524 1523 1524 1524 1525 1526 1527 1527 1531 1534 1535 1538 1540 1541 1541 1542 1542 1542 1542 1542 1542 1540 1540 1541 1539 1537 1536
1514 1514 1513 1514 1514 1515 1515 1515 1516 1518 1518 1518 1519 1520 1522 1523 1526 1526 1524 1524 1524 1524 1525 1526 1526 1528 1532 1534 1535 1537 1540 1540 1540 1541 1541 1541 1540 1540 1536 1536 1538 1539 1537 1535 1535
1518 1517 1516 1516 1517 1517 1517 1518 1519 1519 1519 1519 1519 1521 1522 1525 1526 1525 1525 1525 1525 1525 1525 1525 1527 1528 1531 1534 1536 1538 1539 1539 1540 1540 1540 1540 1538 1538 1533 1533 1535 1535 1533 1533 1533
1520 1520 1519 1518 1518 1519 1519 1520 1520 1520 1520 1521 1521 1522 1523 1528 1526 1526 1526 1527 1525 1525 1525 1526 1528 1530 1532 1535 1537 1538 1538 1538 1540 1540 1540 1539 1537 1536 1532 1533 1534 1533 1533 1532 1531
1521 1521 1521 1521 1521 1521 1521 1521 1521 1522 1522 1522 1522 1522 1526 1528 1528 1527 1527 1527 1526 1526 1526 1528 1529 1530 1533 1537 1538 1541 1543 1544 1541 1540 1540 1539 1536 1530 1531 1532 1532 1531 1531 1531 1529
1522 1522 1521 1521 1522 1522 1522 1522 1522 1522 1522 1522 1523 1523 1529 1529 1529 1528 1528 1528 1527 1527 1528 1529 1530 1533 1535 1540 1544 1547 1545 1546 1544 1542 1542 1541 1537 1531 1531 1530 1529 1529 1530 1529 1527
1522 1522 1522 1522 1522 1522 1522 1522 1522 1522 1523 1523 1524 1526 1530 1531 1530 1529 1528 1528 1528 1528 1529 1531 1532 1536 1542 1543 1549 1544 1545 1548 1549 1544 1543 1543 1538 1533 1526 1525 1526 1527 1528 1527 1526
1522 1522 1522 1522 1522 1522 1522 1523 1526 1526 1524 1527 1528 1528 1529 1531 1530 1529 1528 1528 1528 1529 1535 1533 1540 1545 1546 1547 1547 1549 1550 1553 1548 1545 1546 1540 1538 1529 1525 1524 1526 1527 1527 1527 1525
1522 1522 1521 1521 1522 1523 1524 1523 1523 1526 1529 1529 1529 1529 1529 1529 1530 1529 1529 1530 1530 1536 1535 1539 1545 1546 1546 1546 1547 1549 1551 1552 1546 1545 1548 1540 1534 1528 1526 1527 1527 1526 1526 1526 1526
1523 1522 1521 1522 1522 1523 1523 1523 1524 1525 1526 1531 1531 1531 1531 1531 1532 1532 1531 1531 1533 1537 1541 1543 1546 1545 1545 1546 1546 1550 1550 1550 1551 1548 1547 1544 1529 1528 1527 1528 1527 1527 1526 1525 1525
1525 1522 1521 1521 1525 1523 1523 1524 1524 1525 1539 1536 1532 1532 1533 1531 1533 1533 1532 1535 1535 1541 1542 1545 1545 1544 1546 1546 1549 1547 1548 1550 1552 1549 1541 1547 1532 1531 1529 1528 1528 1528 1526 1525 1525
1526 1524 1522 1522 1522 1523 1525 1524 1525 1525 1565 1538 1534 1534 1532 1532 1536 1535 1535 1534 1539 1541 1543 1546 1546 1546 1547 1547 1549 1549 1550 1552 1551 1553 1551 1548 1544 1526 1532 1529 1528 1528 1526 1525 1525
1527 1525 1525 1524 1523 1523 1524 1525 1526 1546 1560 1537 1535 1535 1535 1535 1536 1536 1536 1537 1539 1541 1544 1548 1548 1548 1548 1548 1548 1549 1551 1552 1555 1553 1547 1554 1552 1527 1531 1527 1527 1527 1526 1526 1526
1528 1526 1525 1525 1526 1525 1526 1527 1545 1560 1544 1541 1540 1539 1539 1540 1539 1539 1541 1544 1546 1550 1547 1549 1548 1548 1549 1550 1548 1547 1547 1553 1550 1553 1547 1557 1555 1528 1528 1526 1526 1526 1526 1526 1527
1529 1528 1527 1526 1527 1527 1528 1531 1554 1542 1541 1540 1540 1540 1539 1541 1542 1542 1544 1548 1547 1549 1559 1559 1557 1550 1549 1548 1548 1550 1549 1560 1562 1560 1557 1560 1543 1524 1527 1526 1526 1526 1527 1526 1526
1528 1528 1528 1527 1527 1528 1529 1556 1542 1540 1537 1540 1540 1540 1541 1541 1543 1543 1544 1547 1545 1545 1547 1550 1545 1549 1548 1547 1549 1549 1556 1557 1567 1580 1573 1551 1539 1528 1527 1528 1527 1527 1526 1526 1526
1528 1526 1528 1528 1527 1528 1533 1536 1535 1535 1537 1537 1540 1542 1543 1544 1545 1543 1545 1543 1544 1544 1544 1548 1548 1547 1548 1548 1550 1547 1554 1558 1567 1568 1556 1546 1545 1524 1527 1527 1528 1527 1526 1527 1525
1527 1526 1527 1526 1527 1528 1542 1539 1535 1535 1535 1538 1540 1540 1542 1543 1545 1544 1544 1545 1543 1544 1544 1546 1549 1549 1548 1547 1547 1554 1555 1562 1565 1565 1558 1563 1533 1522 1521 1522 1524 1525 1525 1524 1524
1526 1527 1526 1526 1528 1532 1534 1530 1530 1532 1535 1537 1537 1539 1541 1543 1543 1544 1543 1543 1542 1543 1545 1548 1553 1559 1545 1549 1548 1549 1551 1553 1559 1565 1571 1574 1544 1521 1520 1519 1522 1523 1523 1523 1522
1524 1526 1526 1524 1534 1533 1532 1532 1531 1529 1529 1532 1535 1537 1538 1540 1542 1542 1542 1542 1541 1542 1545 1546 1556 1567 1545 1552 1550 1548 1549 1551 1559 1562 1560 1559 1530 1520 1520 1520 1522 1522 1522 1521 1520
1525 1525 1526 1524 1527 1530 1531 1531 1533 1532 1531 1528 1530 1533 1535 1539 1540 1540 1539 1540 1539 1539 1540 1541 1552 1549 1551 1541 1546 1548 1547 1549 1549 1563 1538 1530 1512 1519 1519 1520 1521 1520 1517 1514 1513
1525 1527 1524 1527 1526 1528 1531 1532 1532 1533 1533 1532 1532 1530 1532 1537 1538 1540 1542 1541 1540 1540 1541 1543 1552 1547 1542 1541 1542 1539 1540 1544 1549 1537 1541 1500 1519 1514 1520 1518 1517 1516 1515 1512 1512
1524 1524 1527 1527 1528 1525 1525 1530 1530 1530 1533 1534 1533 1531 1532 1535 1535 1539 1538 1540 1539 1541 1540 1543 1551 1557 1555 1539 1537 1532 1532 1531 1529 1527 1524 1519 1513 1520 1520 1519 1517 1515 1514 1515 1514
1523 1524 1522 1529 1528 1529 1527 1525 1524 1529 1533 1535 1535 1534 1534 1534 1533 1533 1535 1536 1536 1538 1542 1545 1550 1557 1543 1536 1542 1539 1519 1517 1519 1520 1519 1522 1521 1522 1521 1520 1519 1516 1514 1512 1511